ES'HAIL 1

Last updated on Mon Oct 14 2024 00:02:39 GMT+0000 (Coordinated Universal Time)

1 39233U 13044A 24287.48300757 .00000142 00000+0 00000+0 0 9994 2 39233 0.0549 19.4460 0002121 181.9042 20.5685 1.00270223 40495
UTC large
Height (km)
Speed (km/s)
/
Latitude / Longitude
Inclination (degrees)
Orbital Period (minutes)
Azimuth
Elevation
Range (km)
Doppler Factor

Next 0 passes for location: London (51.5072 / 0.1276)

Sorry there are no passes over London.